User: anonymous   Login
Location: M.A.R.S.Observatory
(35.4031°N, 81.5481°W)
Time: 16:16:32
(UTC-04:00)
Language:

SL-8 R/B - Orbit

View from above orbital plane
View from above orbital plane
View from above satellite
View from above satellite

Ground track
Ground track

The orbit data is extracted from the following two-line orbital elements,

1 33066U 08031G   16151.20240593 -.00000016  00000-0  30112-4 0  9998
2 33066  48.4436 101.6580 0008326 296.8379 156.4753 14.69433664426439
Epoch (UTC): 30 May 2016 04:51:27
Eccentricity: 0.0008326
inclination: 48.4436°
perigee height: 657 km
apogee height: 669 km
right ascension of ascending node: 101.6580°
argument of perigee: 296.8379°
revolutions per day: 14.69433664
mean anomaly at epoch: 156.4753°
orbit number at epoch: 42643

The dashed part of the orbit path shows where the satellite is in the earth's shadow,  

DLR